Location: Linz
(48.3300°N, 14.3000°E)
Time: 00:09:15
(UTC+01:00)

Vanguard 1 - Visible Passes

Search period start: 18 November 2017 00:00
Search period end: 28 November 2017 00:00
Orbit: 650 x 3834 km, 34.2° (Epoch: 16 November)

Date Brightness Start Highest point End Pass type
(mag) Time Alt. Az. Time Alt. Az. Time Alt. Az.
18 Nov 11.5 17:42:26 10° SSW 17:44:35 13° S 17:46:48 10° SE visible
19 Nov 11.4 18:02:46 10° SSW 18:05:16 15° S 18:07:47 10° SE visible
20 Nov 11.4 18:23:23 10° SW 18:25:57 15° S 18:27:41 13° SSE visible
21 Nov 11.4 18:44:14 10° SW 18:46:39 14° S 18:47:37 14° S visible
22 Nov 11.6 19:05:24 10° SW 19:07:22 13° S 19:07:33 13° S visible
23 Nov 11.6 17:06:11 10° SW 17:08:59 15° S 17:11:34 10° SE visible
23 Nov 11.9 19:27:30 10° SSW 19:27:32 10° SSW 19:27:32 10° SSW visible
24 Nov 11.6 17:26:57 10° SW 17:29:40 15° S 17:32:13 10° SSE visible
25 Nov 11.6 17:47:58 10° SW 17:50:20 14° S 17:52:36 10° SSE visible
26 Nov 11.8 18:09:24 10° SW 18:11:00 12° SSW 18:12:33 10° S visible
